Hourly Data Report for June 04, 2015

All times are specified in Local Standard Time (LST). Add 1 hour to adjust for Daylight Saving Time where and when it is observed.

KELOWNA UBCO
BRITISH COLUMBIA

49°56'26.700" N
119°24'00.760" W
456.00 m
1123996
71644
VKU

Download Data

Hourly Data (June 2015)
Hourly Data Report for June 4, 2015
TIME Temp Definition
°C
Dew Point Definition
°C
Rel Hum Definition
%
Wind Dir Definition
10's deg

Wind Spd Definition
km/h
Visibility Definition
km
Stn Press Definition
kPa
Hmdx Definition


Wind Chill Definition


Weather Definition


00:00 12.5 10.7 88       96.20     LegendNANA
01:00 12.2 10.8 92       96.22     LegendNANA
02:00 11.9 10.8 93       96.22     LegendNANA
03:00 12.0 10.6 91       96.23     LegendNANA
04:00 11.9 10.8 93       96.27     LegendNANA
05:00 12.1 11.0 93       96.29     LegendNANA
06:00 12.5 11.0 91       96.33     LegendNANA
07:00 13.0 11.5 91       96.38     LegendNANA
08:00 13.6 11.7 88       96.40     LegendNANA
09:00 14.0 11.2 84       96.42     LegendNANA
10:00 15.0 11.8 81       96.45     LegendNANA
11:00 16.1 11.0 72       96.46     LegendNANA
12:00 18.5 10.8 61       96.46     LegendNANA
13:00 20.5 12.8 61       96.45     LegendNANA
14:00 17.6 11.7 68       96.45     LegendNANA
15:00 20.4 12.5 60       96.43     LegendNANA
16:00 20.3 12.3 60       96.39     LegendNANA
17:00 19.8 10.0 53       96.36     LegendNANA
18:00 19.2 10.3 56       96.39     LegendNANA
19:00 18.6 11.9 65       96.43     LegendNANA
20:00 16.7 12.7 77       96.47     LegendNANA
21:00 16.5 12.6 78       96.50     LegendNANA
22:00 15.1 12.2 83       96.53     LegendNANA
23:00 13.8 12.2 90       96.56     LegendNANA

Notes on Data Quality.

Legend

  • E = Estimated
  • M = Missing
  • NA = Not Available
Date modified: